Location: Roland
(31.1349°N, 85.4372°W)
Time: 03:26:29
(UTC+00:00)

Courier 1B - Pass Details

Date: 20 April 2021
Orbit: 962 x 1209 km, 28.3° (Epoch: 07 May)

Event Time Altitude Azimuth Distance (km) Brightness Sun altitude
Rises 22:38:19 0° 274° (W) 3,633 12.2 19.3°
Reaches altitude 10° 22:41:05 10° 266° (W) 2,688 12.2 18.7°
Maximum altitude 22:47:03 40° 199° (SSW) 1,400 8.8 17.5°
Drops below altitude 10° 22:53:11 10° 132° (SE) 2,765 9.5 16.1°
Sets 22:56:05 0° 125° (SE) 3,748 10.0 15.5°
